"Pseudo-MPEC" for P10Ijug

Created 2018 Jul 17 17:18:09 UT using Find_Orb

Click here for an explanation of pseudo-MPECs

 
 Astrometry: 
     P10Ijug  C2018 07 107jAstrometrycm+vk9BbZ!fM5F)5P+\Q17egrbl9R/`7+QP'm0(YF51
     P10Ijug  C2018 07 107r%t-/YC:k[%2-_5oredacted;QN!;58see@C(4S0GE\M?i6y3QDF51
     P10Ijug  C2018 07 10H0VUpk$!t%/q=):E=H/emll25(e3/$D@Y:1];+Xn4OxNNovNEOCPF51

Station data:
(F51) Pan-STARRS 1, Haleakala  (N20.707235 W156.255910)  US/Hawaii.
   Observers N. Primak, A. Schultz, S. Watters, J. Thiel, T. Goggia. Measurer
   PS1 Science Consortium. 1.8-m Ritchey-Chrétien + CCD.

Orbital elements:  P10Ijug
   Perihelion 2018 Apr 4.567131 +/- 244 TT = 13:36:40 (JD 2458213.067131)
Epoch 2018 Jul 11.0 TT = JDT 2458310.5   Earth MOID: 0.2641   Ma: 0.0276
M  22.57029 +/- 70                  (J2000 ecliptic)          AutoNEOCP
n   0.23164968 +/- 0.283            Peri.  143.31335 +/- 90
a   2.62571894 +/- 2.14             Node    89.46462 +/- 60
e   0.5236409 +/- 0.263             Incl.   11.38732 +/- 27
P   4.25                   H 21.1   G  0.15   U 11.9  SR
q 1.25078489 +/- 1.09    Q 4.00065300 +/- 71.5
From 3 observations 2018 July 10 (44.7 min); mean residual 0".20
Residuals in arcseconds: 
180710 F51  .02+  .13+    180710 F51  .06-  .38-    180710 F51  .04+  .26+    

Ephemerides (geocentric):
Date (UTC) HH   RA              Dec         delta   r     elong  mag " sig PA
---- -- -- --  -------------   -----------  ------ ------ -----  --- ---- ---
2018 07 17 17  22 04 32.051   -29 06 23.75  .71107 1.6626 148.0 22.5  32d  19
2018 07 17 18  22 04 30.088   -29 07 04.24  .71118 1.6629 148.0 22.5  32d  19
2018 07 17 19  22 04 28.122   -29 07 44.70  .71129 1.6632 148.1 22.5  32d  19
2018 07 17 20  22 04 26.151   -29 08 25.15  .71140 1.6634 148.1 22.5  32d  19
2018 07 17 21  22 04 24.175   -29 09 05.57  .71152 1.6637 148.2 22.5  32d  19
2018 07 17 22  22 04 22.196   -29 09 45.97  .71163 1.6639 148.2 22.5  32d  19
2018 07 17 23  22 04 20.212   -29 10 26.35  .71174 1.6642 148.2 22.5  32d  19
2018 07 18 00  22 04 18.224   -29 11 06.70  .71185 1.6645 148.3 22.5  32d  19
2018 07 18 01  22 04 16.232   -29 11 47.04  .71196 1.6647 148.3 22.5  32d  19
2018 07 18 02  22 04 14.235   -29 12 27.35  .71208 1.6650 148.4 22.5  32d  19
2018 07 18 03  22 04 12.235   -29 13 07.64  .71219 1.6652 148.4 22.5  32d  19
2018 07 18 04  22 04 10.230   -29 13 47.91  .71230 1.6655 148.4 22.5  32d  19
2018 07 18 05  22 04 08.221   -29 14 28.16  .71242 1.6658 148.5 22.5  32d  19
2018 07 18 06  22 04 06.208   -29 15 08.38  .71253 1.6660 148.5 22.5  32d  19
2018 07 18 07  22 04 04.191   -29 15 48.58  .71264 1.6663 148.6 22.5  32d  19
2018 07 18 08  22 04 02.169   -29 16 28.76  .71276 1.6665 148.6 22.5  32d  19
2018 07 18 09  22 04 00.144   -29 17 08.92  .71287 1.6668 148.6 22.5  32d  19
2018 07 18 10  22 03 58.114   -29 17 49.05  .71299 1.6671 148.7 22.5  32d  19
2018 07 18 11  22 03 56.080   -29 18 29.16  .71310 1.6673 148.7 22.5  32d  20
2018 07 18 12  22 03 54.042   -29 19 09.25  .71322 1.6676 148.7 22.5  32d  20
2018 07 18 13  22 03 52.000   -29 19 49.32  .71333 1.6679 148.8 22.5  32d  20
2018 07 18 14  22 03 49.954   -29 20 29.36  .71345 1.6681 148.8 22.5  32d  20
2018 07 18 15  22 03 47.903   -29 21 09.38  .71357 1.6684 148.9 22.5  32d  20
2018 07 18 16  22 03 45.849   -29 21 49.38  .71368 1.6686 148.9 22.5  32d  20
2018 07 18 17  22 03 43.790   -29 22 29.35  .71380 1.6689 148.9 22.5  32d  20
2018 07 18 18  22 03 41.728   -29 23 09.30  .71392 1.6692 149.0 22.5  32d  20
2018 07 18 19  22 03 39.661   -29 23 49.23  .71403 1.6694 149.0 22.5  32d  20
2018 07 18 20  22 03 37.590   -29 24 29.13  .71415 1.6697 149.1 22.5  32d  20
2018 07 18 21  22 03 35.516   -29 25 09.01  .71427 1.6700 149.1 22.5  32d  20
2018 07 18 22  22 03 33.437   -29 25 48.87  .71439 1.6702 149.1 22.5  32d  20
2018 07 18 23  22 03 31.354   -29 26 28.70  .71451 1.6705 149.2 22.5  32d  20
2018 07 19 00  22 03 29.267   -29 27 08.51  .71463 1.6707 149.2 22.5  32d  20
2018 07 19 01  22 03 27.176   -29 27 48.29  .71475 1.6710 149.3 22.5  32d  20
2018 07 19 02  22 03 25.081   -29 28 28.05  .71487 1.6713 149.3 22.5  32d  20
2018 07 19 03  22 03 22.982   -29 29 07.79  .71499 1.6715 149.3 22.5  32d  20
2018 07 19 04  22 03 20.879   -29 29 47.50  .71511 1.6718 149.4 22.5  32d  20
2018 07 19 05  22 03 18.772   -29 30 27.19  .71523 1.6720 149.4 22.5  32d  20
2018 07 19 06  22 03 16.661   -29 31 06.85  .71535 1.6723 149.5 22.5  32d  20
2018 07 19 07  22 03 14.546   -29 31 46.49  .71547 1.6726 149.5 22.5  32d  20
2018 07 19 08  22 03 12.427   -29 32 26.10  .71559 1.6728 149.5 22.5  32d  20
2018 07 19 09  22 03 10.305   -29 33 05.69  .71571 1.6731 149.6 22.5  32d  20
2018 07 19 10  22 03 08.178   -29 33 45.26  .71583 1.6734 149.6 22.5  32d  20
2018 07 19 11  22 03 06.047   -29 34 24.80  .71595 1.6736 149.6 22.5  32d  20
2018 07 19 12  22 03 03.912   -29 35 04.31  .71608 1.6739 149.7 22.5  32d  20
2018 07 19 13  22 03 01.774   -29 35 43.81  .71620 1.6741 149.7 22.5  32d  20
2018 07 19 14  22 02 59.631   -29 36 23.27  .71632 1.6744 149.8 22.5  32d  20
2018 07 19 15  22 02 57.485   -29 37 02.71  .71645 1.6747 149.8 22.5  32d  21
2018 07 19 16  22 02 55.334   -29 37 42.13  .71657 1.6749 149.8 22.5  33d  21